Time,TemperatureF,DewpointF,PressureIn,WindDirection,WindDirectionDegrees,WindSpeedMPH,WindSpeedGustMPH,Humidity,HourlyPrecipIn,Conditions,Clouds,dailyrainin,SoftwareType,DateUTC
2013-12-07 09:21:00,32.1,31.3,30.03,NNE,23,0.0,0.0,97,0.00,,,0.00,Wunderground v.1.15,2013-12-07 17:21:00,
2013-12-07 09:30:00,32.2,31.4,30.04,NNW,335,0.0,1.0,97,0.00,,,0.00,Wunderground v.1.15,2013-12-07 17:30:00,
2013-12-07 09:51:00,32.7,31.9,30.04,NW,311,0.0,0.0,97,0.00,,,0.00,Wunderground v.1.15,2013-12-07 17:51:00,
2013-12-07 10:01:00,32.5,31.5,30.04,NW,325,0.0,2.0,96,0.00,,,0.00,Wunderground v.1.15,2013-12-07 18:01:00,
2013-12-07 10:11:00,31.8,30.8,30.05,NW,322,1.0,1.0,96,0.00,,,0.00,Wunderground v.1.15,2013-12-07 18:11:00,
2013-12-07 10:21:00,30.9,29.6,30.05,WSW,257,1.0,1.0,95,0.00,,,0.00,Wunderground v.1.15,2013-12-07 18:21:00,
2013-12-07 10:30:00,30.1,28.8,30.05,NE,44,1.0,1.0,95,0.00,,,0.00,Wunderground v.1.15,2013-12-07 18:30:00,
2013-12-07 10:41:00,30.0,29.0,30.05,WNW,297,0.0,2.0,96,0.00,,,0.00,Wunderground v.1.15,2013-12-07 18:41:00,
2013-12-07 10:51:00,29.3,28.0,30.05,West,280,1.0,1.0,95,0.00,,,0.00,Wunderground v.1.15,2013-12-07 18:51:00,
2013-12-07 11:01:00,29.4,28.4,30.05,NW,322,0.0,1.0,96,0.00,,,0.00,Wunderground v.1.15,2013-12-07 19:01:00,
2013-12-07 11:11:00,30.2,29.2,30.05,NW,322,0.0,1.0,96,0.00,,,0.00,Wunderground v.1.15,2013-12-07 19:11:00,
2013-12-07 11:21:00,30.7,29.7,30.05,NW,325,0.0,1.0,96,0.00,,,0.00,Wunderground v.1.15,2013-12-07 19:21:00,
2013-12-07 11:31:00,31.3,30.3,30.05,WNW,297,0.0,1.0,96,0.00,,,0.00,Wunderground v.1.15,2013-12-07 19:31:00,
2013-12-07 11:41:00,31.4,30.1,30.05,WSW,255,1.0,1.0,95,0.00,,,0.00,Wunderground v.1.15,2013-12-07 19:41:00,
2013-12-07 11:51:00,31.6,30.3,30.05,NW,305,0.0,2.0,95,0.00,,,0.00,Wunderground v.1.15,2013-12-07 19:51:00,
2013-12-07 12:11:00,30.8,29.3,30.05,WNW,285,1.0,1.0,94,0.00,,,0.00,Wunderground v.1.15,2013-12-07 20:11:00,
2013-12-07 12:21:00,31.2,29.9,30.05,WNW,293,0.0,0.0,95,0.00,,,0.00,Wunderground v.1.15,2013-12-07 20:21:00,
2013-12-07 12:31:00,31.4,29.9,30.05,NNW,332,1.0,1.0,94,0.00,,,0.00,Wunderground v.1.15,2013-12-07 20:31:00,
2013-12-07 12:41:00,31.5,30.0,30.05,NW,319,1.0,1.0,94,0.00,,,0.00,Wunderground v.1.15,2013-12-07 20:41:00,
2013-12-07 12:51:00,32.3,31.0,30.05,NNW,328,0.0,2.0,95,0.00,,,0.00,Wunderground v.1.15,2013-12-07 20:51:00,
2013-12-07 13:01:00,32.3,30.8,30.04,WNW,290,1.0,1.0,94,0.00,,,0.00,Wunderground v.1.15,2013-12-07 21:01:00,
2013-12-07 13:10:00,32.3,30.5,30.04,NNW,329,0.0,3.0,93,0.00,,,0.00,Wunderground v.1.15,2013-12-07 21:10:00,
2013-12-07 13:21:00,32.2,30.4,30.05,WNW,293,1.0,1.0,93,0.00,,,0.00,Wunderground v.1.15,2013-12-07 21:21:00,
2013-12-07 13:30:00,32.2,30.1,30.05,WSW,241,1.0,1.0,92,0.00,,,0.00,Wunderground v.1.15,2013-12-07 21:30:00,
2013-12-07 13:41:00,32.1,30.3,30.05,WNW,288,0.0,3.0,93,0.00,,,0.00,Wunderground v.1.15,2013-12-07 21:41:00,
2013-12-07 13:51:00,31.8,29.5,30.06,WNW,298,0.0,3.0,91,0.00,,,0.00,Wunderground v.1.15,2013-12-07 21:51:00,
2013-12-07 14:00:00,32.1,30.0,30.07,West,276,0.0,3.0,92,0.00,,,0.00,Wunderground v.1.15,2013-12-07 22:00:00,
2013-12-07 14:11:00,31.9,29.6,30.07,NW,321,0.0,3.0,91,0.00,,,0.00,Wunderground v.1.15,2013-12-07 22:11:00,
2013-12-07 14:20:00,32.0,29.9,30.08,NW,319,0.0,3.0,92,0.00,,,0.00,Wunderground v.1.15,2013-12-07 22:20:00,
2013-12-07 14:31:00,31.6,29.3,30.08,WNW,293,0.0,3.0,91,0.00,,,0.00,Wunderground v.1.15,2013-12-07 22:31:00,
2013-12-07 14:41:00,31.7,29.1,30.09,WSW,246,0.0,3.0,90,0.00,,,0.00,Wunderground v.1.15,2013-12-07 22:41:00,
2013-12-07 14:51:00,31.6,29.0,30.09,West,280,0.0,3.0,90,0.00,,,0.00,Wunderground v.1.15,2013-12-07 22:51:00,
2013-12-07 15:00:00,32.0,29.7,30.09,West,275,0.0,3.0,91,0.00,,,0.00,Wunderground v.1.15,2013-12-07 23:00:00,
2013-12-07 15:11:00,32.3,30.0,30.10,West,275,0.0,3.0,91,0.00,,,0.01,Wunderground v.1.15,2013-12-07 23:11:00,
2013-12-07 15:21:00,32.0,29.4,30.10,NNW,335,0.0,3.0,90,0.00,,,0.01,Wunderground v.1.15,2013-12-07 23:21:00,
2013-12-07 15:30:00,31.7,28.0,30.11,NNW,328,0.0,3.0,86,0.00,,,0.01,Wunderground v.1.15,2013-12-07 23:30:00,
2013-12-07 15:41:00,31.5,28.1,30.11,West,278,0.0,3.0,87,0.00,,,0.01,Wunderground v.1.15,2013-12-07 23:41:00,
2013-12-07 15:51:00,31.3,29.0,30.11,West,278,0.0,3.0,91,0.00,,,0.01,Wunderground v.1.15,2013-12-07 23:51:00,
2013-12-07 16:10:00,30.5,27.9,30.13,West,278,0.0,0.0,90,0.00,,,0.01,Wunderground v.1.15,2013-12-08 00:10:00,
2013-12-07 16:21:00,30.2,27.6,30.13,West,278,0.0,0.0,90,0.00,,,0.01,Wunderground v.1.15,2013-12-08 00:21:00,
2013-12-07 16:31:00,29.9,27.6,30.14,West,278,0.0,0.0,91,0.00,,,0.01,Wunderground v.1.15,2013-12-08 00:31:00,
2013-12-07 16:41:00,29.7,27.4,30.14,West,278,0.0,0.0,91,0.00,,,0.01,Wunderground v.1.15,2013-12-08 00:41:00,
2013-12-07 16:51:00,29.3,26.7,30.15,West,278,0.0,0.0,90,0.00,,,0.01,Wunderground v.1.15,2013-12-08 00:51:00,
2013-12-07 17:00:00,29.3,26.2,30.15,West,278,0.0,0.0,88,0.00,,,0.01,Wunderground v.1.15,2013-12-08 01:00:00,
2013-12-07 17:11:00,29.2,26.4,30.16,West,278,0.0,1.0,89,0.00,,,0.01,Wunderground v.1.15,2013-12-08 01:11:00,
2013-12-07 17:21:00,29.2,26.4,30.17,West,278,0.0,1.0,89,0.00,,,0.01,Wunderground v.1.15,2013-12-08 01:21:00,
2013-12-07 17:30:00,29.1,26.5,30.17,West,278,0.0,1.0,90,0.00,,,0.01,Wunderground v.1.15,2013-12-08 01:30:00,
2013-12-07 17:41:00,28.6,26.0,30.17,West,278,0.0,1.0,90,0.00,,,0.01,Wunderground v.1.15,2013-12-08 01:41:00,
2013-12-07 17:50:00,28.2,25.9,30.18,West,278,0.0,1.0,91,0.00,,,0.01,Wunderground v.1.15,2013-12-08 01:50:00,
2013-12-07 18:01:00,27.8,25.8,30.18,West,278,0.0,1.0,92,0.00,,,0.01,Wunderground v.1.15,2013-12-08 02:01:00,
2013-12-07 18:11:00,27.5,25.5,30.18,West,278,0.0,1.0,92,0.00,,,0.01,Wunderground v.1.15,2013-12-08 02:11:00,
2013-12-07 18:20:00,26.9,24.9,30.18,West,278,0.0,1.0,92,0.00,,,0.01,Wunderground v.1.15,2013-12-08 02:20:00,
2013-12-07 18:31:00,27.0,25.5,30.18,ENE,73,0.0,1.0,94,0.00,,,0.01,Wunderground v.1.15,2013-12-08 02:31:00,
2013-12-07 18:41:00,26.9,25.4,30.17,ENE,74,0.0,1.0,94,0.00,,,0.01,Wunderground v.1.15,2013-12-08 02:41:00,
2013-12-07 18:50:00,26.6,25.1,30.17,ENE,71,0.0,1.0,94,0.00,,,0.01,Wunderground v.1.15,2013-12-08 02:50:00,
2013-12-07 19:01:00,26.5,25.3,30.17,East,88,0.0,1.0,95,0.00,,,0.01,Wunderground v.1.15,2013-12-08 03:01:00,
2013-12-07 19:11:00,26.6,25.1,30.17,ENE,60,1.0,1.0,94,0.00,,,0.01,Wunderground v.1.15,2013-12-08 03:11:00,
2013-12-07 19:21:00,26.8,25.3,30.18,ENE,61,2.0,2.0,94,0.00,,,0.01,Wunderground v.1.15,2013-12-08 03:21:00,
2013-12-07 19:31:00,26.7,25.2,30.18,NE,56,0.0,1.0,94,0.00,,,0.01,Wunderground v.1.15,2013-12-08 03:31:00,
2013-12-07 19:41:00,26.6,25.1,30.18,ENE,61,0.0,1.0,94,0.00,,,0.01,Wunderground v.1.15,2013-12-08 03:41:00,
2013-12-07 19:50:00,26.3,24.8,30.18,ENE,61,0.0,1.0,94,0.00,,,0.01,Wunderground v.1.15,2013-12-08 03:50:00,
2013-12-07 20:01:00,26.1,24.6,30.19,ENE,61,0.0,1.0,94,0.00,,,0.01,Wunderground v.1.15,2013-12-08 04:01:00,
2013-12-07 20:11:00,25.9,24.4,30.19,ENE,61,0.0,1.0,94,0.00,,,0.01,Wunderground v.1.15,2013-12-08 04:11:00,
2013-12-07 20:20:00,25.8,24.3,30.20,East,88,0.0,1.0,94,0.00,,,0.01,Wunderground v.1.15,2013-12-08 04:20:00,
2013-12-07 20:31:00,25.5,24.0,30.20,East,88,0.0,1.0,94,0.00,,,0.01,Wunderground v.1.15,2013-12-08 04:31:00,
2013-12-07 20:41:00,25.4,23.9,30.20,East,88,0.0,1.0,94,0.00,,,0.01,Wunderground v.1.15,2013-12-08 04:41:00,
2013-12-07 20:50:00,25.3,23.8,30.20,East,87,0.0,1.0,94,0.00,,,0.01,Wunderground v.1.15,2013-12-08 04:50:00,
2013-12-07 21:00:00,25.2,23.7,30.21,East,82,0.0,1.0,94,0.00,,,0.01,Wunderground v.1.15,2013-12-08 05:00:00,
2013-12-07 21:11:00,25.1,23.6,30.21,East,80,0.0,1.0,94,0.00,,,0.01,Wunderground v.1.15,2013-12-08 05:11:00,
2013-12-07 21:21:00,25.1,23.6,30.22,ENE,74,0.0,1.0,94,0.00,,,0.01,Wunderground v.1.15,2013-12-08 05:21:00,
2013-12-07 21:30:00,24.5,23.0,30.22,ESE,104,1.0,1.0,94,0.00,,,0.01,Wunderground v.1.15,2013-12-08 05:30:00,
2013-12-07 21:41:00,23.9,22.4,30.22,East,80,1.0,1.0,94,0.00,,,0.01,Wunderground v.1.15,2013-12-08 05:41:00,
2013-12-07 21:51:00,23.7,22.2,30.22,East,85,1.0,1.0,94,0.00,,,0.01,Wunderground v.1.15,2013-12-08 05:51:00,
2013-12-07 22:00:00,24.0,22.5,30.22,ENE,78,2.0,2.0,94,0.00,,,0.01,Wunderground v.1.15,2013-12-08 06:00:00,
2013-12-07 22:11:00,24.3,22.6,30.22,NE,43,2.0,2.0,93,0.00,,,0.01,Wunderground v.1.15,2013-12-08 06:11:00,
2013-12-07 22:21:00,24.5,22.5,30.23,East,98,1.0,1.0,92,0.00,,,0.01,Wunderground v.1.15,2013-12-08 06:21:00,
2013-12-07 22:31:00,24.2,22.2,30.23,East,86,1.0,1.0,92,0.00,,,0.01,Wunderground v.1.15,2013-12-08 06:31:00,
2013-12-07 22:41:00,23.9,22.2,30.23,East,79,1.0,1.0,93,0.00,,,0.01,Wunderground v.1.15,2013-12-08 06:41:00,
2013-12-07 22:50:00,24.0,22.3,30.23,East,86,1.0,1.0,93,0.00,,,0.01,Wunderground v.1.15,2013-12-08 06:50:00,
2013-12-07 23:01:00,24.1,22.1,30.23,East,92,1.0,1.0,92,0.00,,,0.01,Wunderground v.1.15,2013-12-08 07:01:00,
2013-12-07 23:11:00,24.0,21.8,30.24,East,101,1.0,1.0,91,0.00,,,0.01,Wunderground v.1.15,2013-12-08 07:11:00,
2013-12-07 23:20:00,23.5,21.3,30.23,ENE,68,1.0,2.0,91,0.00,,,0.01,Wunderground v.1.15,2013-12-08 07:20:00,
2013-12-07 23:31:00,23.5,21.3,30.23,NE,49,2.0,2.0,91,0.00,,,0.01,Wunderground v.1.15,2013-12-08 07:31:00,
2013-12-07 23:40:00,23.2,21.0,30.23,East,94,1.0,1.0,91,0.00,,,0.01,Wunderground v.1.15,2013-12-08 07:40:00,
2013-12-07 23:51:00,23.2,21.0,30.24,ENE,62,1.0,1.0,91,0.00,,,0.01,Wunderground v.1.15,2013-12-08 07:51:00,